Meridian, MS

6:23 PM CST on December 07, 2019 (GMT -0600)
Key

Weather History for KMEI - October, 2019

Change the Weather History Date:

Thursday, October 24, 2019

  Actual Average Record
Temperature  
Mean Temperature 58 °F 61 °F  
Max Temperature 75 °F 75 °F 89 °F (1939)
Min Temperature 42 °F 48 °F 30 °F (1999)
Degree Days  
Heating Degree Days 6 5  
Month to date heating degree days 44 72  
Since 1 July heating degree days 44 79  
Cooling Degree Days 0 2  
Month to date cooling degree days 203 80  
Year to date cooling degree days 2835 2003  
Growing Degree Days 8 (Base 50)    
Moisture  
Dew Point 46 °F    
Average Humidity 66    
Maximum Humidity 92    
Minimum Humidity 33    
Precipitation  
Precipitation 0.00 in 0.13 in 2.03 in (1986)
Month to date precipitation 4.93 2.87  
Year to date precipitation 48.11 45.26  
Sea Level Pressure  
Sea Level Pressure 30.15 in    
Wind  
Wind Speed 2 mph ()    
Max Wind Speed 13 mph    
Max Gust Speed 15 mph    
Visibility 10.0 miles    
Events      
T = Trace of Precipitation, MM = Missing Value Source: Averaged Metar Reports

Daily Weather History Graph

Daily Weather History Graph

Search for Another Location

Airport or City:

Astronomy

Oct. 24, 2019 Rise Set
Actual Time 7:05 AM CDT 6:12 PM CDT
Civil Twilight 6:40 AM CDT 6:37 PM CDT
Nautical Twilight 6:11 AM CDT 7:06 PM CDT
Astronomical Twilight 5:43 AM CDT 7:34 PM CDT
Moon 2:56 AM CDT (10/24) 4:21 PM CDT (10/24)
Length of Visible Light 11h 57m
Length of Day
11h 07m
Waning Crescent, 16% of the Moon is Illuminated
Oct 24
Waning Crescent
Oct 27
New
Nov 4
First Quarter
Nov 12
Full
Nov 19
Last Quarter

Hourly Weather History & Observations

Time (CDT) Temp. Windchill Dew Point Humidity Pressure Visibility Wind Dir Wind Speed Gust Speed Precip Events Conditions
12:58 AM 46.0 °F - 43.0 °F 89% 30.16 in 10.0 mi Calm Calm - N/A   Clear
1:58 AM 45.0 °F - 42.1 °F 90% 30.16 in 10.0 mi Calm Calm - N/A   Clear
3:58 AM 44.1 °F - 41.0 °F 89% 30.16 in 10.0 mi Calm Calm - N/A   Clear
4:58 AM 44.1 °F - 39.9 °F 85% 30.17 in 10.0 mi Calm Calm - N/A   Clear
5:58 AM 43.0 °F 41.3 °F 39.9 °F 89% 30.17 in 10.0 mi NW 3.5 mph - N/A   Clear
6:58 AM 43.0 °F 41.3 °F 39.0 °F 86% 30.18 in 10.0 mi NNW 3.5 mph - N/A   Clear
7:58 AM 48.0 °F - 43.0 °F 83% 30.19 in 10.0 mi North 4.6 mph - N/A   Clear
8:58 AM 54.0 °F - 46.9 °F 77% 30.21 in 10.0 mi North 3.5 mph - N/A   Clear
9:58 AM 63.0 °F - 46.9 °F 56% 30.21 in 10.0 mi Calm Calm - N/A   Clear
10:58 AM 68.0 °F - 45.0 °F 43% 30.21 in 10.0 mi East 4.6 mph - N/A   Clear
11:58 AM 70.0 °F - 45.0 °F 41% 30.19 in 10.0 mi East 4.6 mph - N/A   Clear
12:58 PM 73.0 °F - 43.0 °F 34% 30.17 in 10.0 mi SE 9.2 mph - N/A   Clear
1:58 PM 73.9 °F - 44.1 °F 34% 30.12 in 10.0 mi ESE 6.9 mph - N/A   Clear
2:58 PM 73.0 °F - 43.0 °F 34% 30.12 in 10.0 mi East 5.8 mph - N/A   Clear
3:58 PM 72.0 °F - 45.0 °F 38% 30.12 in 10.0 mi East 6.9 mph - N/A   Clear
4:58 PM 69.1 °F - 46.9 °F 45% 30.12 in 10.0 mi East 3.5 mph - N/A   Clear
5:58 PM 66.9 °F - 46.9 °F 49% 30.12 in 10.0 mi Calm Calm - N/A   Clear
6:58 PM 61.0 °F - 52.0 °F 72% 30.12 in 10.0 mi Calm Calm - N/A   Clear
7:58 PM 60.1 °F - 52.0 °F 75% 30.12 in 10.0 mi Calm Calm - N/A   Clear
8:58 PM 59.0 °F - 52.0 °F 78% 30.13 in 10.0 mi NW 3.5 mph - N/A   Clear
9:58 PM 57.9 °F - 53.1 °F 84% 30.13 in 10.0 mi NNW 3.5 mph - N/A   Scattered Clouds
11:58 PM 61.0 °F - 53.1 °F 75% 30.12 in 10.0 mi North 4.6 mph - N/A   Mostly Cloudy